When you browse on this site, cookies collect data to enhance your experience and personalize the content and advertising you see.
Visit our Privacy Policy to learn more. By continuing to use the site, you agree to this use of cookies and data.
  • In Sweden
  • List of Countries
  • For 7 days
  • Water Temperature
  • Satellite Maps
  • Weather Map
  • Weather Widgets
  • user-avatar
    Login

    Hourly Weather Clinton

    Today, 19 May, Sunday

    Time Temperature Precipitation Wind Pressure Humidity
    00:00 +14°C° 0 mm 0 mps 740 mmHg 88%
    01:00 +16°C° 0 mm 1 mps 740 mmHg 89%
    02:00 +16°C° 0 mm 1 mps 740 mmHg 91%
    03:00 +16°C° 0 mm 1 mps 740 mmHg 93%
    04:00 +17°C° 0 mm 2 mps 740 mmHg 91%
    05:00 +18°C° 0 mm 3 mps 740 mmHg 90%
    06:00 +19°C° 0 mm 4 mps 740 mmHg 88%
    07:00 +21°C° 0 mm 5 mps 740 mmHg 82%
    08:00 +22°C° 0 mm 6 mps 739 mmHg 77%
    09:00 +24°C° 0 mm 7 mps 739 mmHg 71%
    10:00 +24°C° 0.6 mm 7 mps 739 mmHg 73%
    11:00 +23°C° 0.6 mm 8 mps 739 mmHg 75%
    12:00 +23°C° 0.6 mm 8 mps 739 mmHg 77%
    13:00 +22°C° 2.5 mm 8 mps 738 mmHg 79%
    14:00 +22°C° 2.5 mm 7 mps 738 mmHg 81%
    15:00 +21°C° 2.5 mm 7 mps 738 mmHg 84%
    16:00 +21°C° 0.2 mm 7 mps 738 mmHg 84%
    17:00 +21°C° 0.2 mm 6 mps 738 mmHg 84%
    18:00 +21°C° 0.2 mm 6 mps 738 mmHg 84%
    19:00 +20°C° 0.3 mm 6 mps 738 mmHg 83%
    20:00 +20°C° 0.3 mm 6 mps 738 mmHg 83%
    21:00 +19°C° 0.3 mm 6 mps 737 mmHg 83%
    22:00 +19°C° 0 mm 5 mps 738 mmHg 84%
    23:00 +17°C° 0 mm 5 mps 738 mmHg 85%

    Tomorrow, 20 May, Monday

    Time Temperature Precipitation Wind Pressure Humidity
    00:00 +17°C° 0 mm 4 mps 738 mmHg 86%
    01:00 +15°C° 0 mm 4 mps 738 mmHg 84%
    02:00 +14°C° 0 mm 5 mps 738 mmHg 83%
    03:00 +13°C° 0 mm 5 mps 738 mmHg 81%
    04:00 +11°C° 0 mm 6 mps 739 mmHg 78%
    05:00 +10°C° 0 mm 6 mps 739 mmHg 76%
    06:00 +9°C° 0 mm 7 mps 740 mmHg 73%
    07:00 +10°C° 0 mm 7 mps 740 mmHg 70%
    08:00 +11°C° 0 mm 7 mps 741 mmHg 67%
    09:00 +11°C° 0 mm 7 mps 741 mmHg 64%
    10:00 +11°C° 0 mm 7 mps 742 mmHg 65%
    11:00 +10°C° 0 mm 8 mps 742 mmHg 66%
    12:00 +10°C° 0 mm 8 mps 743 mmHg 67%
    13:00 +10°C° 0 mm 7 mps 743 mmHg 67%
    14:00 +10°C° 0 mm 7 mps 744 mmHg 66%
    15:00 +10°C° 0 mm 7 mps 744 mmHg 65%
    16:00 +10°C° 0 mm 6 mps 745 mmHg 65%
    17:00 +10°C° 0 mm 6 mps 745 mmHg 65%
    18:00 +10°C° 0 mm 5 mps 746 mmHg 65%
    19:00 +10°C° 0 mm 5 mps 746 mmHg 65%
    20:00 +10°C° 0 mm 4 mps 747 mmHg 64%
    21:00 +10°C° 0 mm 4 mps 747 mmHg 63%
    22:00 +8°C° 0 mm 4 mps 748 mmHg 65%
    23:00 +8°C° 0 mm 4 mps 748 mmHg 66%

    Day after tomorrow, 21 May, Tuesday

    Time Temperature Precipitation Wind Pressure Humidity
    00:00 +8°C° 0 mm 3 mps 748 mmHg 67%
    01:00 +8°C° 0 mm 3 mps 748 mmHg 65%
    02:00 +7°C° 0 mm 3 mps 748 mmHg 64%
    03:00 +7°C° 0 mm 3 mps 748 mmHg 63%
    04:00 +7°C° 0 mm 3 mps 748 mmHg 63%
    05:00 +8°C° 0 mm 3 mps 749 mmHg 63%
    06:00 +8°C° 0 mm 3 mps 749 mmHg 62%
    07:00 +10°C° 0 mm 2 mps 749 mmHg 59%
    08:00 +13°C° 0 mm 2 mps 750 mmHg 55%
    09:00 +15°C° 0 mm 1 mps 750 mmHg 52%
    10:00 +16°C° 0 mm 1 mps 750 mmHg 48%
    11:00 +18°C° 0 mm 1 mps 750 mmHg 45%
    12:00 +19°C° 0 mm 2 mps 750 mmHg 41%
    13:00 +19°C° 0 mm 2 mps 750 mmHg 42%
    14:00 +19°C° 0 mm 2 mps 749 mmHg 43%
    15:00 +19°C° 0 mm 3 mps 749 mmHg 43%
    16:00 +18°C° 0 mm 3 mps 749 mmHg 48%
    17:00 +17°C° 0 mm 3 mps 749 mmHg 53%
    18:00 +16°C° 0 mm 3 mps 749 mmHg 58%
    19:00 +14°C° 0 mm 3 mps 749 mmHg 56%
    20:00 +13°C° 0 mm 3 mps 749 mmHg 55%
    21:00 +12°C° 0 mm 3 mps 749 mmHg 53%
    22:00 +12°C° 0 mm 3 mps 749 mmHg 52%
    23:00 +11°C° 0 mm 3 mps 749 mmHg 50%

    22 May, Wednesday

    Time Temperature Precipitation Wind Pressure Humidity
    00:00 +11°C° 0 mm 3 mps 748 mmHg 49%
    01:00 +10°C° 0 mm 3 mps 749 mmHg 51%
    02:00 +10°C° 0 mm 3 mps 749 mmHg 52%
    03:00 +10°C° 0 mm 3 mps 749 mmHg 54%
    04:00 +11°C° 0 mm 3 mps 749 mmHg 57%
    05:00 +11°C° 0 mm 4 mps 749 mmHg 61%
    06:00 +10°C° 0 mm 5 mps 748 mmHg 64%
    07:00 +10°C° 0.1 mm 5 mps 748 mmHg 64%
    08:00 +12°C° 0.1 mm 5 mps 748 mmHg 64%
    09:00 +12°C° 0.1 mm 5 mps 747 mmHg 64%
    10:00 +14°C° 0.2 mm 6 mps 747 mmHg 59%
    11:00 +16°C° 0.2 mm 6 mps 747 mmHg 54%
    12:00 +17°C° 0.2 mm 7 mps 747 mmHg 48%
    13:00 +17°C° 0.2 mm 6 mps 746 mmHg 53%
    14:00 +17°C° 0.2 mm 5 mps 746 mmHg 58%
    15:00 +17°C° 0.2 mm 3 mps 746 mmHg 62%
    16:00 +17°C° 0 mm 3 mps 746 mmHg 65%
    17:00 +17°C° 0 mm 3 mps 745 mmHg 67%
    18:00 +17°C° 0 mm 3 mps 745 mmHg 70%
    19:00 +16°C° 0 mm 3 mps 745 mmHg 74%
    20:00 +14°C° 0 mm 3 mps 745 mmHg 79%
    21:00 +14°C° 0 mm 3 mps 745 mmHg 84%
    22:00 +15°C° 0 mm 2 mps 745 mmHg 88%
    23:00 +15°C° 0 mm 1 mps 745 mmHg 92%

    23 May, Thursday

    Time Temperature Precipitation Wind Pressure Humidity
    00:00 +15°C° 0 mm 1 mps 745 mmHg 96%
    01:00 +16°C° 0.1 mm 1 mps 745 mmHg 97%
    02:00 +17°C° 0.1 mm 2 mps 745 mmHg 97%
    03:00 +17°C° 0.1 mm 2 mps 745 mmHg 98%
    04:00 +18°C° 0.1 mm 2 mps 745 mmHg 97%
    05:00 +19°C° 0.1 mm 3 mps 745 mmHg 97%
    06:00 +19°C° 0.1 mm 3 mps 745 mmHg 96%
    07:00 +22°C° 0 mm 4 mps 745 mmHg 87%
    08:00 +25°C° 0 mm 4 mps 745 mmHg 77%
    09:00 +27°C° 0 mm 5 mps 745 mmHg 68%
    10:00 +29°C° 0 mm 5 mps 745 mmHg 61%
    11:00 +30°C° 0 mm 5 mps 745 mmHg 55%
    12:00 +32°C° 0 mm 5 mps 745 mmHg 48%
    13:00 +32°C° 0 mm 5 mps 746 mmHg 48%
    14:00 +32°C° 0 mm 5 mps 746 mmHg 49%
    15:00 +32°C° 0 mm 5 mps 746 mmHg 49%
    16:00 +29°C° 0 mm 4 mps 746 mmHg 53%
    17:00 +28°C° 0 mm 3 mps 746 mmHg 58%
    18:00 +27°C° 0 mm 3 mps 746 mmHg 63%
    19:00 +25°C° 0 mm 2 mps 746 mmHg 67%
    20:00 +24°C° 0 mm 2 mps 746 mmHg 71%
    21:00 +23°C° 0 mm 2 mps 747 mmHg 76%
    22:00 +21°C° 0 mm 2 mps 747 mmHg 80%
    23:00 +20°C° 0 mm 2 mps 747 mmHg 84%

    24 May, Friday

    Time Temperature Precipitation Wind Pressure Humidity
    00:00 +19°C° 0 mm 2 mps 747 mmHg 88%
    01:00 +19°C° 0 mm 2 mps 747 mmHg 89%
    02:00 +19°C° 0 mm 1 mps 747 mmHg 90%
    03:00 +18°C° 0 mm 1 mps 747 mmHg 90%
    04:00 +19°C° 0 mm 1 mps 747 mmHg 89%
    05:00 +19°C° 0 mm 1 mps 747 mmHg 87%
    06:00 +18°C° 0 mm 2 mps 747 mmHg 85%
    07:00 +19°C° 0 mm 2 mps 747 mmHg 84%
    08:00 +21°C° 0 mm 3 mps 747 mmHg 82%
    09:00 +22°C° 0 mm 3 mps 747 mmHg 80%
    10:00 +23°C° 0 mm 4 mps 746 mmHg 78%
    11:00 +25°C° 0 mm 4 mps 746 mmHg 76%
    12:00 +27°C° 0 mm 4 mps 746 mmHg 73%
    13:00 +28°C° 0.1 mm 5 mps 745 mmHg 70%
    14:00 +29°C° 0.1 mm 5 mps 744 mmHg 66%
    15:00 +30°C° 0.1 mm 5 mps 744 mmHg 63%
    16:00 +30°C° 0.3 mm 5 mps 744 mmHg 64%
    17:00 +29°C° 0.3 mm 5 mps 743 mmHg 65%
    18:00 +28°C° 0.3 mm 5 mps 743 mmHg 67%
    19:00 +28°C° 0.2 mm 5 mps 743 mmHg 68%
    20:00 +27°C° 0.2 mm 6 mps 743 mmHg 69%
    21:00 +26°C° 0.2 mm 6 mps 743 mmHg 70%
    22:00 +26°C° 0 mm 6 mps 743 mmHg 73%
    23:00 +24°C° 0 mm 6 mps 743 mmHg 76%
    Show more